Flag for Canada Weather past 2 weeks in Halton Hills, Ontario, Canada

Now
72 °F

Scattered clouds.


Feels Like: 77 °F
Forecast: 55 / 82 °F
Wind: 10 mph from South

Location: Toronto Pearson International Airport

Current Time: May 28, 2015 at 9:19:10 PM

Latest Report: May 28, 2015 at 8:00 PM


Visibility: 15 mi

Pressure: 30.24 "Hg

Humidity: 53%

Dew point: 54 °F

Location of Halton HillsLocation

Historic Weather in Halton Hills — Graph

°F

Halton Hills temperature yesterday

Maximum temperature yesterday: 84 °F (at 4:00 PM)
Minimum temperature yesterday: 64 °F (at 1:00 AM)
Average temperature yesterday: 73 °F

Past Weeks' High & Low Weather Summary

 TemperatureHumidityPressure
High84 °F (May 26, 3:00 PM)88% (May 19, 3:00 AM)30.49 "Hg (May 19, 3:00 AM)
Low36 °F (May 23, 5:03 AM)20% (May 23, 3:00 PM)29.83 "Hg (May 21, 5:00 PM)
Average62 °F54%30.10 "Hg
* Reported May 13 8:00 PM — May 28 8:00 PM, Halton Hills, Weather by CustomWeather, © 2015

Note: Actual official high and low records may vary slightly from our data, if they occured in-between our weather recording intervals... More about our weather records

Advertising

Halton Hills weather history for previous 24 hours

 ConditionsComfort  
Time TempWeatherWind HumidityBarometerVisibility
8:00 PM
Thu, May 28
72 °FScattered clouds.10 mph53%30.24 "Hg15 mi
7:00 PM75 °FPassing clouds.10 mph50%30.23 "Hg15 mi
6:00 PM75 °FScattered clouds.10 mph47%30.22 "Hg15 mi
5:00 PM79 °FScattered clouds.9 mph39%30.22 "Hg15 mi
4:00 PM77 °FScattered clouds.12 mph44%30.23 "Hg15 mi
3:00 PM77 °FScattered clouds.2 mph44%30.24 "Hg15 mi
2:00 PM77 °FScattered clouds.8 mph42%30.24 "Hg15 mi
1:00 PM75 °FPassing clouds.15 mph41%30.24 "Hg15 mi
12:00 PM73 °FPassing clouds.12 mph50%30.23 "Hg15 mi
11:00 AM72 °FPassing clouds.14 mph50%30.22 "Hg15 mi
10:00 AM70 °FPassing clouds.20 mph57%30.21 "Hg15 mi
9:00 AM66 °FPassing clouds.14 mph64%30.19 "Hg15 mi
8:00 AM64 °FScattered clouds.17 mph68%30.17 "Hg15 mi
7:00 AM61 °FPartly sunny.22 mph72%30.14 "Hg15 mi
6:00 AM61 °FOvercast.24 mph72%30.11 "Hg15 mi
5:00 AM59 °FPassing clouds.21 mph77%30.06 "Hg15 mi
4:00 AM59 °FPassing clouds.10 mph77%30.05 "Hg15 mi
3:00 AM61 °FPassing clouds.12 mph77%30.03 "Hg15 mi
2:00 AM63 °FPassing clouds.17 mph73%30.02 "Hg15 mi
1:00 AM66 °FMostly cloudy.14 mph83%29.99 "Hg15 mi
12:00 AM66 °FOvercast.14 mph83%29.98 "Hg15 mi
11:00 PM
Wed, May 27
68 °FMostly cloudy.15 mph78%29.97 "Hg15 mi
10:00 PM70 °FMostly cloudy.14 mph69%29.96 "Hg15 mi
9:00 PM72 °FPartly sunny.13 mph65%29.96 "Hg15 mi
Weather by CustomWeather, © 2015

See weather overviewHow to use our weather pages